TimeEDT,TemperatureF,Dew PointF,Humidity,Sea Level PressureIn,VisibilityMPH,Wind Direction,Wind SpeedMPH,Gust SpeedMPH,PrecipitationIn,Events,Conditions,WindDirDegrees,DateUTC
12:53 AM,39.9,39.9,100,29.50,10.0,Calm,Calm,-,N/A,,Scattered Clouds,0,2012-11-02 04:53:00
1:53 AM,39.9,39.9,100,29.50,10.0,Calm,Calm,-,N/A,,Overcast,0,2012-11-02 05:53:00
2:53 AM,42.1,41.0,96,29.50,10.0,Calm,Calm,-,N/A,,Overcast,0,2012-11-02 06:53:00
3:53 AM,43.0,42.1,97,29.49,10.0,South,3.5,-,N/A,,Overcast,190,2012-11-02 07:53:00
4:53 AM,43.0,42.1,97,29.49,10.0,Calm,Calm,-,0.00,Rain,Light Rain,0,2012-11-02 08:53:00
5:53 AM,43.0,42.1,97,29.50,10.0,South,3.5,-,0.00,,Overcast,170,2012-11-02 09:53:00
6:53 AM,43.0,42.1,97,29.50,10.0,Calm,Calm,-,0.00,,Overcast,0,2012-11-02 10:53:00
7:53 AM,43.0,42.1,97,29.51,9.0,Calm,Calm,-,N/A,,Mostly Cloudy,0,2012-11-02 11:53:00
8:53 AM,45.0,43.0,93,29.52,10.0,Calm,Calm,-,N/A,,Mostly Cloudy,0,2012-11-02 12:53:00
9:53 AM,48.0,43.0,83,29.51,10.0,Calm,Calm,-,N/A,,Mostly Cloudy,0,2012-11-02 13:53:00
10:53 AM,51.1,42.1,71,29.51,10.0,SSW,4.6,-,N/A,,Mostly Cloudy,210,2012-11-02 14:53:00
11:53 AM,53.1,41.0,64,29.49,10.0,Calm,Calm,-,N/A,,Mostly Cloudy,0,2012-11-02 15:53:00
12:53 PM,52.0,37.9,59,29.48,10.0,Calm,Calm,-,N/A,,Mostly Cloudy,0,2012-11-02 16:53:00
1:53 PM,52.0,41.0,66,29.48,10.0,WNW,3.5,-,N/A,,Overcast,290,2012-11-02 17:53:00
2:53 PM,52.0,39.9,63,29.48,10.0,NW,3.5,-,N/A,,Overcast,320,2012-11-02 18:53:00
3:53 PM,52.0,42.1,69,29.49,10.0,Calm,Calm,-,N/A,,Overcast,0,2012-11-02 19:53:00
4:53 PM,50.0,42.1,74,29.50,10.0,North,6.9,-,N/A,,Overcast,350,2012-11-02 20:53:00
5:53 PM,48.9,43.0,80,29.52,10.0,North,6.9,-,N/A,,Overcast,350,2012-11-02 21:53:00
6:53 PM,48.9,44.1,83,29.53,10.0,North,5.8,-,N/A,,Overcast,350,2012-11-02 22:53:00
7:53 PM,48.0,44.1,86,29.53,10.0,NNW,5.8,-,N/A,,Overcast,340,2012-11-02 23:53:00
8:53 PM,46.9,44.1,90,29.55,10.0,NW,5.8,-,N/A,,Overcast,320,2012-11-03 00:53:00
9:53 PM,46.0,44.1,93,29.55,10.0,NW,5.8,-,N/A,,Overcast,310,2012-11-03 01:53:00
10:23 PM,46.4,42.8,87,29.55,10.0,NW,6.9,-,N/A,,Overcast,310,2012-11-03 02:23:00
10:32 PM,46.4,42.8,87,29.55,10.0,NW,4.6,-,N/A,,Overcast,310,2012-11-03 02:32:00
10:53 PM,45.0,41.0,86,29.55,10.0,NW,8.1,-,N/A,,Overcast,320,2012-11-03 02:53:00
11:03 PM,44.6,41.0,87,29.55,10.0,NW,6.9,-,N/A,,Overcast,320,2012-11-03 03:03:00
11:53 PM,45.0,39.0,80,29.55,10.0,WNW,5.8,-,N/A,,Overcast,300,2012-11-03 03:53:00